Dewpoint
50 44 41 41 42 41 43 39 40 38 40 38 38 38 37 37 37 35 37 39 39 41 41 40 45 50 53 55 56 57 58 60 60 60 60 60 59 60 59 59 59 58 57 58
45 41 42 42 41 41 42 38 37 40 39 38 37 36 37 37 37 38 37 36 35 35 38 41 40 46 52 54 55 56 57 59 60 60 60 60 60 60 59 60 60 58 58 58
39 38 42 41 42 41 40 38 38 39 41 40 39 37 37 38 38 39 39 39 38 36 34 35 41 42 47 52 54 56 57 57 59 60 61 61 61 60 60 59 60 59 58 58
42 41 41 41 41 40 37 39 39 40 38 35 39 33 32 33 34 36 37 38 38 38 38 36 35 41 43 48 52 54 56 57 58 59 60 60 60 59 59 59 60 59 60 59
39 40 43 41 40 41 39 40 39 40 38 37 36 35 33 32 31 32 33 35 37 37 37 37 36 35 40 43 47 52 55 56 57 58 60 60 60 59 59 59 59 60 60 60
39 41 40 39 41 40 39 39 40 40 38 32 34 31 28 29 30 30 31 33 35 36 36 36 37 38 37 40 49 52 53 54 56 58 59 59 59 59 59 59 59 60 60 60
39 39 40 41 37 40 41 38 32 31 30 29 30 31 29 30 30 30 32 33 34 34 35 36 37 38 40 42 43 49 54 54 55 57 58 59 59 59 59 59 59 59 59 59
34 33 40 42 38 38 39 36 32 25 26 25 29 26 26 30 31 33 35 35 34 34 34 34 34 36 38 40 43 46 46 51 54 55 57 58 59 59 59 59 59 59 59 59
34 35 40 41 41 40 40 37 37 30 25 26 28 28 28 30 29 31 32 33 33 32 32 33 33 34 36 37 40 42 47 47 49 52 54 56 58 59 59 59 59 59 59 60
36 32 40 41 43 43 40 41 34 34 24 21 21 21 21 27 28 30 31 31 31 31 31 33 33 34 36 36 39 40 41 44 47 50 52 54 56 58 59 60 59 59 58 60
38 36 34 40 39 37 38 37 37 36 31 26 22 21 24 26 28 28 30 30 29 28 30 33 34 34 35 36 38 39 39 40 43 47 50 52 54 56 57 58 59 59 59 59
39 36 32 35 40 40 39 37 36 30 30 31 29 28 29 29 29 30 29 30 30 29 31 34 36 36 36 36 36 36 37 39 41 45 49 52 53 55 56 56 58 59 59 59
39 34 30 32 36 40 37 37 39 37 35 31 25 25 27 26 28 29 29 34 35 36 37 37 34 31 32 34 35 34 34 36 41 44 49 51 53 54 55 56 57 58 58 59
39 36 32 29 29 32 33 36 37 36 32 29 31 30 30 29 25 30 35 35 34 35 35 34 32 28 31 33 35 35 34 34 36 43 47 51 52 54 55 56 56 57 58 58
38 32 34 32 29 30 29 30 32 32 32 29 27 27 28 25 29 30 33 34 33 33 29 28 28 29 31 31 34 37 37 36 35 40 46 48 50 53 54 54 55 56 56 57
33 29 29 27 29 27 26 29 31 29 28 27 28 27 28 30 32 33 35 32 25 24 25 27 28 31 32 32 33 34 36 37 36 37 41 47 48 49 49 49 51 51 51 52
32 31 27 19 27 27 25 27 27 28 30 30 28 28 31 30 31 30 27 26 25 28 28 30 32 32 33 34 35 35 36 38 37 37 38 39 42 43 44 44 44 45 46 46
31 30 26 19 22 17 24 23 27 26 26 27 28 27 26 25 25 28 31 31 31 32 33 33 33 33 33 35 35 36 38 39 38 37 37 36 36 39 40 41 42 42 42 43
36 31 27 21 15 21 22 23 23 23 22 24 24 24 24 25 27 30 31 31 31 31 32 33 34 33 33 34 35 36 37 37 37 36 36 35 35 35 38 39 41 41 40 39
35 36 29 23 15 12 21 23 25 24 21 28 27 28 28 27 21 28 27 29 29 29 31 32 32 32 31 33 34 35 35 35 36 36 36 36 35 34 35 38 40 38 37 37
27 30 26 25 21 22 26 25 24 20 22 25 24 24 24 25 25 25 26 25 26 27 28 27 26 27 30 31 32 32 33 34 35 35 36 35 34 34 35 35 38 37 36 35
23 24 23 24 18 12 25 22 18 21 23 20 19 19 18 19 21 21 20 21 22 22 23 24 25 28 28 29 30 31 32 33 34 35 35 35 35 34 34 36 36 35 35 36
20 25 23 24 22 26 22 19 17 16 16 16 15 15 14 15 15 16 16 17 18 19 20 22 25 23 24 27 27 28 30 32 32 34 34 34 35 35 34 35 36 36 35 37
24 23 24 23 20 21 16 13 11 12 12 11 10 10 11 11 12 12 12 14 15 17 19 20 19 21 21 23 24 28 28 25 29 31 32 33 34 35 35 35 36 36 35 36
21 22 23 22 12 16 14 9 8 8 7 5 7 7 7 8 8 8 10 13 14 15 15 17 17 17 20 21 21 18 20 24 28 29 31 32 33 34 34 34 35 35 36 37
9 9 17 14 4 4 8 6 5 2 2 3 3 4 5 5 6 9 10 10 10 11 12 13 15 15 16 15 13 13 18 24 24 27 28 30 32 33 33 34 34 37 37 37
Lifted_Index
1 1 2 2 2 1 1 1 1 1 0 1 1 2 2 2 3 3 4 4 4 4 3 3 3 3 2 1 1 1 0 0 0 1 2 2 2 3 3 3 3 4 4 5
1 2 2 2 2 2 2 1 1 1 1 1 1 2 3 3 3 3 4 4 4 4 4 4 3 3 2 1 1 1 1 0 0 1 1 2 2 2 2 3 3 3 4 4
1 1 2 2 2 2 2 2 1 1 1 1 1 2 3 3 4 4 4 4 4 4 4 4 4 3 3 2 1 1 1 1 1 1 1 1 1 2 2 2 2 3 3 3
1 1 1 1 2 2 2 2 1 1 1 1 2 2 3 4 4 4 4 4 4 4 4 4 4 4 4 3 2 2 1 1 1 1 1 1 1 1 2 2 2 3 3 3
1 0 0 1 1 2 2 1 1 1 1 2 2 3 4 4 4 4 4 4 3 3 4 4 5 5 5 5 4 3 2 2 1 1 1 1 1 1 2 2 3 3 3 3
0 0 -0 0 1 1 1 1 1 1 1 2 2 3 3 4 4 4 3 3 3 4 4 4 5 6 6 6 6 4 3 2 2 2 1 1 1 1 2 2 3 3 3 2
0 0 0 0 0 0 1 1 1 1 1 1 2 3 3 4 3 3 3 3 3 4 5 6 6 7 7 7 7 6 5 4 3 2 2 1 1 1 2 2 3 3 3 2
0 0 0 0 0 0 1 1 1 0 1 2 3 3 3 4 3 3 3 3 3 5 6 7 7 7 8 8 8 7 7 5 4 3 2 2 1 1 2 2 2 3 3 2
1 1 1 0 0 0 0 0 0 0 0 1 3 3 4 4 4 3 3 3 3 5 6 7 7 7 8 8 8 8 8 7 6 5 4 3 2 2 2 2 2 2 2 2
1 1 1 1 0 -0 0 0 0 0 0 1 2 3 4 4 4 4 4 3 3 4 5 6 6 7 7 7 8 8 8 8 7 7 5 4 3 2 2 2 2 2 2 2
1 1 1 1 0 0 0 0 0 0 0 1 2 3 3 4 4 4 4 4 4 4 4 5 5 6 7 7 8 8 8 8 8 8 7 6 4 3 3 3 2 2 2 2
1 1 1 1 1 1 0 0 0 0 1 1 2 2 3 3 3 3 3 4 4 4 4 4 5 6 7 7 8 8 8 8 8 8 8 7 6 5 4 3 3 3 2 2
1 1 1 1 1 1 1 1 0 1 1 1 1 2 2 2 2 3 3 3 3 3 3 4 5 6 7 7 8 8 9 9 9 9 8 8 7 5 5 4 4 3 3 2
0 0 -0 -0 0 1 1 1 1 1 1 1 1 2 2 2 2 2 2 3 3 3 3 4 5 6 7 7 7 8 9 9 9 9 9 8 7 6 5 4 4 3 3 3
0 -0 -0 -0 0 1 1 1 1 1 0 1 1 2 2 2 2 2 2 3 3 4 5 5 6 6 6 7 7 8 8 9 9 9 9 9 8 7 5 4 3 3 3 3
0 0 1 0 0 0 1 1 1 1 0 0 1 2 2 2 2 2 2 3 4 5 6 6 6 6 6 7 8 8 8 8 9 9 9 9 9 8 6 5 4 4 3 3
1 1 1 1 1 1 1 2 2 1 1 1 1 2 2 3 3 3 3 4 5 6 7 7 7 7 7 8 8 9 8 8 8 8 8 8 8 8 7 7 6 5 4 4
1 1 2 2 2 1 2 2 2 2 2 2 2 2 3 4 4 4 4 5 6 6 7 7 7 8 8 8 8 9 9 8 8 8 8 8 8 7 7 7 7 6 5 5
1 1 2 2 2 2 2 3 3 2 2 2 2 3 3 4 4 4 5 5 6 7 8 8 9 9 9 8 9 9 8 7 7 7 7 7 7 7 7 7 7 7 6 5
1 1 2 2 2 2 2 3 2 2 2 3 3 3 3 4 5 5 5 6 7 8 8 9 10 10 9 9 9 9 8 7 7 7 7 7 7 6 6 6 6 6 6 6
1 1 2 2 2 2 2 2 2 2 2 3 3 3 4 4 5 6 7 7 7 8 9 10 10 10 10 10 10 10 9 7 7 6 6 6 6 6 6 5 5 5 6 7
1 1 1 2 2 2 2 2 2 2 2 3 3 3 4 5 6 6 7 8 8 8 8 9 10 10 9 10 10 10 10 9 8 7 6 6 6 6 6 5 5 5 6 6
2 2 2 2 2 2 3 3 3 3 3 3 3 4 4 5 6 6 7 7 8 8 8 9 9 9 9 9 10 10 10 9 8 8 7 6 6 6 6 6 5 5 5 5
3 3 3 3 3 3 4 4 4 4 4 4 5 5 5 6 6 7 7 7 8 8 8 9 9 10 9 9 9 9 9 9 9 8 7 7 6 6 6 6 6 5 5 5
4 4 4 4 4 4 5 5 5 5 5 6 6 6 6 7 7 7 8 8 8 9 9 9 10 10 10 10 9 9 9 9 8 8 8 7 6 6 6 6 6 6 6 5
4 4 4 4 4 5 5 5 5 6 6 6 7 7 7 7 8 8 8 8 9 9 10 10 10 10 10 10 10 9 9 9 8 7 7 7 7 6 6 6 6 6 6 6